Regional Weather Roundup
Issued by NWS Northern Indiana

Home | Current Version | Previous Version | Graphics & Text | Print | Product List | Glossary On
Versions: 1 2 3 4 5 6 7 8 9 10 11 12 13 14 15 16 17 18 19 20 21 22 23 24 25 26 27 28 29 30 31 32 33 34 35 36 37 38 39 40 41 42 43 44 45 46 47 48 49 50
316
ASUS43 KIWX 071800
RWRIWX

KIWX WEATHER ROUNDUP
NATIONAL WEATHER SERVICE NORTHERN INDIANA
100 PM EST WED DEC 07 2016

NOTE: "FAIR" INDICATES FEW OR NO CLOUDS BELOW 12,000 FEET WITH NO
SIGNIFICANT WEATHER AND/OR OBSTRUCTIONS TO VISIBILITY.

* THESE STATIONS ARE NOT UNDER NWS QUALITY CONTROL. THEY ALSO MAY NOT
  REPORT WEATHER SUCH AS PRECIPITATION OR FOG.

INZ001>027-071900-
NORTHERN INDIANA

CITY           SKY/WX    TMP DP  RH WIND       PRES   REMARKS
GARY*          PTSUNNY   30  19  64 W9        30.10F WCI  22
SOUTH BEND     MOSUNNY   30  21  69 SW14      30.08F WCI  19
6HR MIN TEMP:  26; 6HR MAX TEMP:  31;

ELKHART*       SUNNY     32  21  64 SW9       30.07S WCI  24
GOSHEN         MOSUNNY   33  21  61 SW16      30.07F WCI  23
6HR MIN TEMP:  27; 6HR MAX TEMP:  34;

MONTICELLO*    CLOUDY    32  19  59 W10       30.12F WCI  23
6HR MIN TEMP:  28; 6HR MAX TEMP:  32;

ANGOLA*        PTSUNNY   34  23  64 SW16      30.05S WCI  23
FORT WAYNE     PTSUNNY   33  23  66 W15       30.09F WCI  23
6HR MIN TEMP:  26; 6HR MAX TEMP:  33;

PERU/GRISSOM   PTSUNNY   34  23  63 W15       30.10F WCI  24
6HR MIN TEMP:  26; 6HR MAX TEMP:  34;


$$
INZ028>050-071900-
CENTRAL INDIANA

CITY           SKY/WX    TMP DP  RH WIND       PRES   REMARKS
LAFAYETTE      MOSUNNY   33  22  63 W10       30.13F WCI  25
6HR MIN TEMP:  27; 6HR MAX TEMP:  33;

KOKOMO*        PTSUNNY   35  23  61 W14       30.12F WCI  26
6HR MIN TEMP:  27; 6HR MAX TEMP:  35;

MUNCIE*        MOSUNNY   34  21  59 W9G18     30.12F WCI  27
6HR MIN TEMP:  26; 6HR MAX TEMP:  36;

INDIANAPOLIS   PTSUNNY   36  22  56 W9        30.14F
6HR MIN TEMP:  24; 6HR MAX TEMP:  37;


$$
MIZ043>046-050>051-056>058-064>065-071>073-077>080-071900-
SOUTHWEST LOWER MICHIGAN

CITY           SKY/WX    TMP DP  RH WIND       PRES   REMARKS
BATTLE CREEK   MOSUNNY   36  24  62 SW18      30.01S
6HR MIN TEMP:  30; 6HR MAX TEMP:  38;

BENTON HARBOR  PTSUNNY   35  23  61 W17       30.06F WCI  25
6HR MIN TEMP:  32; 6HR MAX TEMP:  36;

COLDWATER*     CLOUDY    34  24  66 W12       30.03S WCI  26
6HR MIN TEMP:  27; 6HR MAX TEMP:  36;

HILLSDALE*     PTSUNNY   34  23  64 SW15G22   30.01S WCI  24
HOLLAND        PTSUNNY   34  25  69 W21       30.01F WCI  22
6HR MIN TEMP:  32; 6HR MAX TEMP:  34;

GRAND RAPIDS   PTSUNNY   34  23  64 W18       29.99F WCI  23
6HR MIN TEMP:  31; 6HR MAX TEMP:  34;

KALAMAZOO      MOSUNNY   35  23  61 W16G22    30.03S WCI  25
6HR MIN TEMP:  30; 6HR MAX TEMP:  36;

STURGIS*       CLOUDY    35  23  62 W15       30.04S WCI  25
6HR MIN TEMP:  26; 6HR MAX TEMP:  35;

THREE RIVERS*  PTSUNNY   34  24  67 W10       30.04F WCI  26
6HR MIN TEMP:  27; 6HR MAX TEMP:  36;


$$
OHZ001>008-015>018-024>025-071900-
NORTHWEST OHIO

CITY           SKY/WX    TMP DP  RH WIND       PRES   REMARKS
DEFIANCE       MOSUNNY   34  22  61 SW16G22   30.08F WCI  24
6HR MIN TEMP:  27; 6HR MAX TEMP:  35;

FINDLAY        SUNNY     35  22  58 SW13      30.09S WCI  26
6HR MIN TEMP:  27; 6HR MAX TEMP:  36;

TOLEDO EXPRESS MOSUNNY   34  23  64 SW14G23   30.06F WCI  25
6HR MIN TEMP:  26; 6HR MAX TEMP:  34;

TOLEDO METCALF MOSUNNY   35  25  66 SW18      30.07F WCI  24
6HR MIN TEMP:  27; 6HR MAX TEMP:  36;

LIMA           MOSUNNY   33  25  72 W16       30.10S WCI  23
6HR MIN TEMP:  24; 6HR MAX TEMP:  34;


$$
AND FOR LAKE MICHIGAN COASTAL AND OPEN LAKE BUOY OBSERVATIONS

STATION/POSITION TEMP    WIND        PRES    VSBY  WAVE
                 AIR SEA DIR/SP/G                  HT/PER
                 (F)     (DEG/KT/KT) (MB)    (MI)  (FT/S)
CALUMET HARBOR    29     230/ 12/ 15 1018.3F
MICHIGAN CITY     30     190/ 11/ 13   N/A
BURNS HARBOR      30     240/ 13/ 16 1019.3F
SAINT JOSEPH      34     250/ 16/ 22 1017.9F

$$
&&




USA.gov is the U.S. government's official web portal to all federal, state and local government web resources and services.